This is the latest recevied weather packets stored in our database for station/object IW3HBX-13. If no packets are shown the sender has not sent any weather packets the latest 10 day(s).
| Time | Temp. | Humidity | Pressure | Rain* | Wind** | Luminosity | Snow |
|---|---|---|---|---|---|---|---|
| 1777712047 | 21.11° C | 41% | 1025.8 hPa | 0 mm | - | 664 W/m² | - |
| 1777711687 | 21.11° C | 39% | 1025.9 hPa | 0 mm | - | 654 W/m² | - |
| 1777711327 | 20.56° C | 40% | 1025.9 hPa | 0 mm | - | 642 W/m² | - |
| 1777711031 | 21.11° C | 41% | 1025.9 hPa | 0 mm | - | 625 W/m² | - |
| 1777710968 | 21.11° C | 41% | 1025.9 hPa | 0 mm | - | 625 W/m² | - |
| 1777710247 | 20.56° C | 41% | 1026 hPa | 0 mm | - | 590 W/m² | - |
| 1777709888 | 20.56° C | 40% | 1026 hPa | 0 mm | - | 575 W/m² | - |
| 1777709527 | 21.11° C | 43% | 1026 hPa | 0 mm | - | 559 W/m² | - |
| 1777709167 | 20.56° C | 42% | 1026.2 hPa | 0 mm | - | 543 W/m² | - |
| 1777708450 | 18.89° C | 45% | 1026.3 hPa | 0 mm | - | 505 W/m² | - |
| 1777708087 | 18.89° C | 45% | 1026.4 hPa | 0 mm | - | 484 W/m² | - |
| 1777707729 | 18.33° C | 46% | 1026.3 hPa | 0 mm | - | 466 W/m² | - |
| 1777707367 | 18.89° C | 45% | 1026.2 hPa | 0 mm | - | 448 W/m² | - |
| 1777707008 | 18.89° C | 46% | 1026.3 hPa | 0 mm | - | 433 W/m² | - |
| 1777706648 | 18.33° C | 49% | 1026.4 hPa | 0 mm | - | 414 W/m² | - |
| 1777706287 | 18.33° C | 49% | 1026.5 hPa | 0 mm | - | 395 W/m² | - |
| 1777705927 | 17.22° C | 50% | 1026.5 hPa | 0 mm | - | 374 W/m² | - |
| 1777705567 | 17.22° C | 51% | 1026.5 hPa | 0 mm | - | 358 W/m² | - |
| 1777704849 | 17.22° C | 53% | 1026.6 hPa | 0 mm | - | 320 W/m² | - |
| 1777704488 | 16.11° C | 54% | 1026.6 hPa | 0 mm | - | 299 W/m² | - |
| 1777704127 | 15.56° C | 55% | 1026.5 hPa | 0 mm | - | 280 W/m² | - |
| 1777703767 | 15.56° C | 57% | 1026.5 hPa | 0 mm | - | 261 W/m² | - |
| 1777703408 | 15° C | 55% | 1026.6 hPa | 0 mm | - | 241 W/m² | - |
| 1777703048 | 15° C | 57% | 1026.6 hPa | 0 mm | - | 221 W/m² | - |
| 1777702687 | 13.89° C | 60% | 1026.6 hPa | 0 mm | - | 202 W/m² | - |
* Rain latest hour (hover to see other rain measurements)
** Current wind speed in m/s (hover to see current wind gust speed)